, TX

(GMT )
Boomvang

Weather History for KVAF - December, 2013

Change the Weather History Date:

Saturday, December 14, 2013

  Actual Average Record
Temperature  
Mean Temperature 68 °F -  
Max Temperature 80 °F - - ()
Min Temperature 57 °F - - ()
Cooling Degree Days 4    
Growing Degree Days 18 (Base 50)    
Moisture  
Dew Point 62 °F    
Average Humidity 75    
Maximum Humidity 94    
Minimum Humidity 64    
Precipitation  
Precipitation 0.00 in - - ()
Sea Level Pressure  
Sea Level Pressure 29.97 in    
Wind  
Wind Speed 16 mph (WNW)    
Max Wind Speed 28 mph    
Max Gust Speed 36 mph    
Visibility 9 miles    
Events      
T = Trace of Precipitation, MM = Missing Value Source: NWS Daily Summary

Daily Weather History Graph

Daily Weather History Graph

Search for Another Location

Airport or City:

Trip Planner

Search our weather history database for the weather conditions in past years. The results will help you decide how hot, cold, wet, or windy it might be!

Date:

Astronomy

Dec. 14, 2013 Rise Set
Actual Time 7:00 AM CST 5:26 PM CST
Civil Twilight 6:34 AM CST 5:51 PM CST
Nautical Twilight 6:05 AM CST 6:20 PM CST
Astronomical Twilight 5:37 AM CST 6:49 PM CST
Moon 3:40 PM CST (12/14) 4:31 AM CST (12/14)
Length of Visible Light 11h 17m
Length of Day
10h 25m
Waxing Gibbous, 94% of the Moon is Illuminated
Dec 14
Waxing Gibbous
Dec 17
Full
Dec 25
Last Quarter
Jan 1
New
Jan 7
First Quarter

Hourly Weather History & Observations

Time (CST) Temp. Heat Index Dew Point Humidity Pressure Visibility Wind Dir Wind Speed Gust Speed Precip Events Conditions
12:15 AM 75.2 °F - 66.2 °F 73% 29.92 in 10.0 mi SW 24.2 mph - N/A   Mostly Cloudy
12:35 AM 75.2 °F - 66.2 °F 73% 29.91 in 10.0 mi SW 27.6 mph - N/A   Overcast
12:55 AM 75.2 °F - 68.0 °F 78% 29.90 in 10.0 mi SW 26.5 mph - N/A   Scattered Clouds
1:15 AM 75.2 °F - 68.0 °F 78% 29.90 in 10.0 mi WSW 21.9 mph 28.8 mph N/A   Partly Cloudy
1:35 AM 75.2 °F - 68.0 °F 78% 29.90 in 9.0 mi WSW 24.2 mph - N/A   Scattered Clouds
1:55 AM 75.2 °F - 68.0 °F 78% 29.90 in 10.0 mi WSW 20.7 mph - N/A   Mostly Cloudy
2:15 AM 75.2 °F - 68.0 °F 78% 29.90 in 10.0 mi WSW 21.9 mph - N/A   Scattered Clouds
2:35 AM 75.2 °F - 68.0 °F 78% 29.89 in 10.0 mi WSW 18.4 mph - N/A   Clear
2:55 AM 75.2 °F - 68.0 °F 78% 29.88 in 10.0 mi WSW 19.6 mph - N/A   Partly Cloudy
3:15 AM 75.2 °F - 68.0 °F 78% 29.88 in 10.0 mi WSW 19.6 mph - N/A   Partly Cloudy
3:35 AM 75.2 °F - 68.0 °F 78% 29.87 in 10.0 mi WSW 19.6 mph - N/A   Mostly Cloudy
3:55 AM 75.2 °F - 68.0 °F 78% 29.87 in 10.0 mi WSW 16.1 mph - N/A   Scattered Clouds
4:15 AM 75.2 °F - 68.0 °F 78% 29.86 in 9.0 mi WSW 20.7 mph - N/A   Clear
4:35 AM 75.2 °F - 68.0 °F 78% 29.86 in 9.0 mi WSW 21.9 mph - N/A   Clear
4:55 AM 75.2 °F - 68.0 °F 78% 29.86 in 9.0 mi WSW 19.6 mph - N/A   Partly Cloudy
5:15 AM 75.2 °F - 68.0 °F 78% 29.87 in 10.0 mi WSW 20.7 mph - N/A   Clear
5:35 AM 75.2 °F - 68.0 °F 78% 29.87 in 9.0 mi WSW 17.3 mph - N/A   Mostly Cloudy
5:55 AM 75.2 °F - 68.0 °F 78% 29.87 in 10.0 mi WSW 18.4 mph 24.2 mph N/A   Overcast
6:15 AM 75.2 °F - 68.0 °F 78% 29.88 in 9.0 mi WSW 18.4 mph - N/A   Overcast
6:35 AM 75.2 °F - 68.0 °F 78% 29.89 in 9.0 mi WSW 16.1 mph - N/A   Overcast
6:55 AM 75.2 °F - 68.0 °F 78% 29.90 in 10.0 mi WSW 17.3 mph - N/A   Overcast
7:15 AM 75.2 °F - 68.0 °F 78% 29.90 in 9.0 mi WSW 13.8 mph - N/A   Scattered Clouds
7:35 AM 75.2 °F - 69.8 °F 83% 29.91 in 9.0 mi West 12.7 mph - N/A   Scattered Clouds
7:55 AM 75.2 °F - 69.8 °F 83% 29.92 in 9.0 mi West 10.4 mph - N/A   Overcast
8:15 AM 75.2 °F - 69.8 °F 83% 29.93 in 9.0 mi West 8.1 mph - N/A   Overcast
8:35 AM 75.2 °F - 69.8 °F 83% 29.93 in 9.0 mi West 9.2 mph - N/A   Mostly Cloudy
8:55 AM 75.2 °F - 69.8 °F 83% 29.94 in 9.0 mi West 6.9 mph - N/A   Mostly Cloudy
9:15 AM 75.2 °F - 69.8 °F 83% 29.95 in 9.0 mi West 8.1 mph - N/A   Overcast
9:35 AM 78.8 °F - 69.8 °F 74% 29.95 in 10.0 mi Calm Calm - N/A   Mostly Cloudy
9:55 AM 80.6 °F 83.9 °F 69.8 °F 70% 29.95 in 10.0 mi Calm Calm - N/A   Overcast
10:15 AM 80.6 °F 83.9 °F 69.8 °F 70% 29.95 in 10.0 mi Calm Calm - N/A   Overcast
10:35 AM 80.6 °F 83.9 °F 69.8 °F 70% 29.95 in 10.0 mi Calm Calm - N/A   Mostly Cloudy
10:55 AM 75.2 °F - 68.0 °F 78% 29.95 in 9.0 mi North 10.4 mph 17.3 mph N/A   Overcast
11:15 AM 73.4 °F - 68.0 °F 83% 29.95 in 9.0 mi Calm Calm 11.5 mph N/A   Overcast
11:35 AM 75.2 °F - 68.0 °F 78% 29.94 in 10.0 mi Calm Calm 13.8 mph N/A   Overcast
11:55 AM 75.2 °F - 66.2 °F 73% 29.94 in 10.0 mi Calm Calm - N/A   Mostly Cloudy
12:15 PM 71.6 °F - 66.2 °F 83% 29.94 in 2.0 mi Calm Calm - N/A   Haze
12:35 PM 69.8 °F - 66.2 °F 88% 29.94 in 2.5 mi Calm Calm - N/A   Haze
12:55 PM 69.8 °F - 66.2 °F 88% 29.93 in 4.0 mi Variable 3.5 mph - N/A   Scattered Clouds
1:15 PM 69.8 °F - 66.2 °F 88% 29.93 in 2.5 mi Calm Calm - N/A   Scattered Clouds
1:35 PM 68.0 °F - 66.2 °F 94% 29.93 in 2.5 mi Variable 3.5 mph - N/A   Partly Cloudy
1:55 PM 68.0 °F - 62.6 °F 83% 29.93 in 10.0 mi Calm Calm - N/A   Mostly Cloudy
2:15 PM 69.8 °F - 57.2 °F 64% 29.94 in 10.0 mi Calm Calm - N/A   Overcast
2:35 PM 69.8 °F - 57.2 °F 64% 29.94 in 10.0 mi Calm Calm - N/A   Overcast
2:55 PM 69.8 °F - 57.2 °F 64% 29.95 in 10.0 mi Calm Calm 11.5 mph N/A   Overcast
3:15 PM 69.8 °F - 57.2 °F 64% 29.95 in 10.0 mi Calm Calm - N/A   Overcast
3:35 PM 69.8 °F - 57.2 °F 64% 29.96 in 10.0 mi Calm Calm - N/A   Overcast
3:55 PM 68.0 °F - 55.4 °F 64% 29.97 in 10.0 mi Variable 4.6 mph 19.6 mph N/A   Overcast
4:15 PM 68.0 °F - 57.2 °F 68% 29.97 in 10.0 mi North 15.0 mph 26.5 mph N/A   Overcast
4:35 PM 68.0 °F - 55.4 °F 64% 29.99 in 10.0 mi Variable 5.8 mph 20.7 mph N/A   Overcast
4:55 PM 66.2 °F - 55.4 °F 68% 30.00 in 10.0 mi Variable 6.9 mph 28.8 mph N/A   Overcast
5:15 PM 66.2 °F - 53.6 °F 64% 30.01 in 10.0 mi North 25.3 mph 31.1 mph N/A   Overcast
5:35 PM 64.4 °F - 53.6 °F 68% 30.01 in 10.0 mi North 13.8 mph 29.9 mph N/A   Overcast
5:55 PM 64.4 °F - 53.6 °F 68% 30.03 in 10.0 mi NNW 9.2 mph 31.1 mph N/A   Overcast
6:15 PM 62.6 °F - 51.8 °F 68% 30.03 in 10.0 mi North 8.1 mph 32.2 mph N/A   Overcast
6:35 PM 62.6 °F - 53.6 °F 72% 30.05 in 10.0 mi North 17.3 mph 33.4 mph N/A   Overcast
6:55 PM 62.6 °F - 53.6 °F 72% 30.05 in 10.0 mi North 16.1 mph 31.1 mph N/A   Overcast
7:15 PM 62.6 °F - 53.6 °F 72% 30.06 in 9.0 mi NNW 13.8 mph 32.2 mph N/A   Overcast
7:35 PM 62.6 °F - 53.6 °F 72% 30.08 in 10.0 mi North 15.0 mph 31.1 mph N/A   Overcast
7:55 PM 62.6 °F - 51.8 °F 68% 30.09 in 10.0 mi North 17.3 mph 34.5 mph N/A   Overcast
8:15 PM 60.8 °F - 51.8 °F 72% 30.10 in 10.0 mi North 25.3 mph 34.5 mph N/A   Overcast
8:35 PM 60.8 °F - 53.6 °F 77% 30.11 in 10.0 mi NNW 11.5 mph 34.5 mph N/A   Overcast
8:55 PM 60.8 °F - 51.8 °F 72% 30.12 in 10.0 mi North 25.3 mph 34.5 mph N/A   Overcast
9:15 PM 60.8 °F - 51.8 °F 72% 30.14 in 10.0 mi North 18.4 mph 32.2 mph N/A   Overcast
9:35 PM 59.0 °F - 50.0 °F 72% 30.14 in 10.0 mi North 20.7 mph 31.1 mph N/A   Overcast
9:55 PM 59.0 °F - 50.0 °F 72% 30.15 in 8.0 mi North 20.7 mph 35.7 mph N/A   Overcast
10:15 PM 59.0 °F - 50.0 °F 72% 30.16 in 9.0 mi North 21.9 mph 34.5 mph N/A   Overcast
10:35 PM 57.2 °F - 48.2 °F 72% 30.16 in 10.0 mi North 21.9 mph 34.5 mph N/A   Mostly Cloudy
10:55 PM 57.2 °F - 48.2 °F 72% 30.17 in 10.0 mi NNE 17.3 mph 31.1 mph N/A   Overcast
11:15 PM 57.2 °F - 46.4 °F 67% 30.18 in 10.0 mi North 20.7 mph 29.9 mph N/A   Overcast
11:35 PM 57.2 °F - 46.4 °F 67% 30.19 in 10.0 mi North 20.7 mph 27.6 mph N/A   Overcast
11:55 PM 57.2 °F - 46.4 °F 67% 30.19 in 10.0 mi North 17.3 mph 28.8 mph N/A   Overcast